Location: The Saddle
(36.8333°N, 80.3417°W)
Time: 04:45:06
(UTC-04:00)

Vanguard 3 - Pass Details

Date: 01 March 2024
Orbit: 510 x 3234 km, 33.3° (Epoch: 24 April)

Event Time Altitude Azimuth Distance (km) Brightness Sun altitude
Rises 00:02:00 0° 280° (W) 7,180 12.1 -59.7°
Reaches altitude 10° 00:06:54 10° 278° (W) 6,173 11.7 -59.9°
Enters shadow 00:14:16 28° 272° (W) 4,660 10.8 -60.2°
